User: anonymous   Login
Location: Unspecified
(0.0000°N, 0.0000°E)
Time: 03:47:37
(UTC+00:00)
Language:

CORIOLIS - Orbit

View from above orbital plane
View from above orbital plane
View from above satellite
View from above satellite

Ground track
Ground track

The orbit data is extracted from the following two-line orbital elements,

1 27640U 03001A   24111.91952888  .00000513  00000-0  26418-3 0  9995
2 27640  98.7152 120.0531 0013403 323.9227  36.1044 14.19439891102510
Epoch (UTC): 20 April 2024 22:04:07
Eccentricity: 0.0013403
inclination: 98.7152°
perigee height: 817 km
apogee height: 837 km
right ascension of ascending node: 120.0531°
argument of perigee: 323.9227°
revolutions per day: 14.19439891
mean anomaly at epoch: 36.1044°
orbit number at epoch: 10251

The dashed part of the orbit path shows where the satellite is in the earth's shadow,  

DLR